Location: *
(47.7167°N, 1.7333°W)
Time: 09:13:31
(UTC+00:00)

Cosmos 1812 Rocket - Pass Details

Date: 09 April 2020
Orbit: 607 x 631 km, 82.5° (Epoch: 01 June)

Event Time Altitude Azimuth Distance (km) Brightness Sun altitude
Exits shadow 21:02:24 32° 194° (SSW) 1,061 4.5 -20.8°
Maximum altitude 21:04:25 83° 278° (W) 620 3.5 -21.1°
Drops below altitude 10° 21:08:47 10° 8° (N) 1,969 6.5 -21.7°
Sets 21:11:00 0° 9° (N) 2,878 7.4 -21.9°
